FW2315 Weather Reports


time (UTC)temp
C
wind
direction
speed
KPH
gust
KPH
rain 1hr
cm
rain 24hr
cm
rain mn
cm
humidity
%
barometer
mb
20260503053036 13 293 3.2 14.5 0.00 0.00 0.00 72 1020.9
20260503051530 12 287 1.6 3.2 0.00 0.00 0.00 74 1020.8
20260503050031 12 307 1.6 6.4 0.00 0.00 0.00 75 1020.9
20260503044543 11 326 1.6 8.0 0.00 0.00 0.00 75 1021.0
20260503043040 11 321 0.0 8.0 0.00 0.00 0.00 76 1020.8
20260503041526 11 16 0.0 6.4 0.00 0.00 0.00 76 1020.9
20260503040029 11 19 3.2 4.8 0.00 0.00 0.00 75 1020.8
20260503034523 11 342 1.6 6.4 0.00 0.00 0.00 75 1020.9
20260503033023 11 24 3.2 4.8 0.00 0.00 0.00 75 1020.9
20260503031526 11 294 3.2 4.8 0.00 0.00 0.00 75 1021.1
20260503030019 11 350 3.2 6.4 0.00 0.00 0.00 74 1021.1
20260503024517 11 355 1.6 4.8 0.00 0.00 0.00 74 1021.1
20260503023017 12 360 1.6 4.8 0.00 0.00 0.00 74 1021.1
20260503021516 12 355 0.0 3.2 0.00 0.00 0.00 74 1021.2
20260503020013 12 360 1.6 6.4 0.00 0.00 0.00 73 1021.2
20260503014512 12 14 4.8 6.4 0.00 0.00 0.00 71 1021.4
20260503013012 12 317 3.2 4.8 0.00 0.00 0.00 72 1021.5
20260503011507 12 36 1.6 4.8 0.00 0.00 0.00 73 1021.6
20260503010004 12 355 3.2 9.7 0.00 0.00 0.00 72 1021.7
20260503004505 13 327 4.8 9.7 0.00 0.00 0.00 70 1021.8
20260503003100 13 9 4.8 9.7 0.00 0.00 0.00 70 1022.0
20260503001558 13 13 6.4 9.7 0.00 0.00 0.00 71 1022.2
20260503000104 13 342 3.2 6.4 0.00 0.00 0.00 72 1022.3
20260502234602 13 355 3.2 8.0 0.00 0.00 0.00 71 1022.5
20260502233052 13 5 4.8 9.7 0.00 0.00 0.00 70 1022.5
20260502231550 13 5 4.8 9.7 0.00 0.00 0.00 68 1022.5
20260502230049 13 355 6.4 9.7 0.00 0.00 0.00 69 1022.5
20260502224549 14 360 4.8 12.9 0.00 0.00 0.00 69 1022.6
20260502223045 14 360 4.8 6.4 0.00 0.00 0.00 68 1022.6
20260502221543 14 335 3.2 8.0 0.00 0.00 0.00 69 1022.6
20260502220050 14 5 4.8 9.7 0.00 0.00 0.00 68 1022.5
20260502214541 15 21 3.2 6.4 0.00 0.00 0.00 67 1022.5
20260502213042 15 19 3.2 8.0 0.00 0.00 0.00 65 1022.3
20260502211540 15 40 4.8 8.0 0.00 0.00 0.00 65 1022.3
20260502210038 16 28 1.6 4.8 0.00 0.00 0.00 64 1022.1
20260502204541 16 360 1.6 4.8 0.00 0.00 0.00 62 1021.9
20260502203037 16 16 3.2 8.0 0.00 0.00 0.00 65 1021.9
20260502201545 16 5 4.8 6.4 0.00 0.00 0.00 63 1021.8
20260502200043 16 340 3.2 9.7 0.00 0.00 0.00 62 1021.8
20260502194539 17 298 3.2 6.4 0.00 0.00 0.00 60 1021.8
20260502193040 17 349 4.8 12.9 0.00 0.00 0.00 58 1021.5
20260502191536 17 316 3.2 9.7 0.00 0.00 0.00 61 1021.3
20260502190043 17 17 6.4 9.7 0.00 0.00 0.00 61 1021.1
20260502184533 17 337 3.2 8.0 0.00 0.00 0.00 62 1020.9
20260502183032 18 327 3.2 8.0 0.00 0.00 0.00 58 1020.7
20260502181634 19 360 8.0 17.7 0.00 0.00 0.00 57 1020.4
20260502163026 22 298 6.4 16.1 0.00 0.00 0.00 51 1020.1
20260502161525 22 313 6.4 14.5 0.00 0.00 0.00 51 1020.2
20260502151545 23 110 11.3 24.1 0.00 0.00 0.00 42 1020.6
20260502130107 22 161 6.4 17.7 0.00 0.00 0.00 45 1022.7
20260502123051 21 306 8.0 14.5 0.00 0.00 0.00 52 1023.1
20260502121548 20 241 1.6 9.7 0.00 0.00 0.00 54 1023.3
20260502114541 18 281 4.8 12.9 0.00 0.00 0.00 59 1023.8
20260502113048 18 294 4.8 12.9 0.00 0.00 0.00 61 1024.1
20260502111535 17 273 4.8 11.3 0.00 0.00 0.00 62 1024.6
20260502110035 17 272 4.8 12.9 0.00 0.00 0.00 63 1025.0
20260502104528 17 194 1.6 11.3 0.00 0.00 0.00 62 1025.3
20260502103026 16 140 1.6 9.7 0.00 0.00 0.00 61 1025.6
20260502101526 17 213 6.4 11.3 0.00 0.00 0.00 61 1025.8
20260502091515 16 234 4.8 11.3 0.00 0.00 0.00 67 1026.6
20260502080105 15 297 3.2 6.4 0.00 0.00 0.00 71 1027.3
20260502070104 13 248 3.2 6.4 0.00 0.00 0.00 74 1027.9
20260502064558 12 265 0.0 4.8 0.00 0.00 0.00 73 1028.0
20260502063051 12 258 0.0 4.8 0.00 0.00 0.00 74 1028.1
20260502061545 12 282 1.6 4.8 0.00 0.00 0.00 73 1028.0
20260502060043 12 299 1.6 4.8 0.00 0.00 0.00 74 1028.2
20260502054543 11 340 1.6 4.8 0.00 0.00 0.00 75 1028.3